Weather History for Sao Paulo, Brazil

Change the Weather History Date:

Monday, February 18, 2013

  Actual Average Record
Temperature  
Mean Temperature 80 °F -  
Max Temperature 93 °F 80 °F 93 °F (2013)
Min Temperature 68 °F 66 °F 62 °F (2000)
Cooling Degree Days 16    
Growing Degree Days 30 (Base 50)    
Moisture  
Dew Point 62 °F    
Average Humidity 61    
Maximum Humidity 83    
Minimum Humidity 18    
Precipitation  
Precipitation 0.00 in - - ()
Sea Level Pressure  
Sea Level Pressure 30.04 in    
Wind  
Wind Speed 5 mph ()    
Max Wind Speed 24 mph    
Max Gust Speed 40 mph    
Visibility 6.0 miles    
Events Rain , Thunderstorm    
Averages and records for this station are not official NWS values.
T = Trace of Precipitation, MM = Missing Value Source: Averaged Metar Reports

Daily Weather History Graph

Daily Weather History Graph

Search for Another Location

Airport:

Trip Planner

Search our weather history database for the weather conditions in past years. The results will help you decide how hot, cold, wet, or windy it might be!

Date:

Astronomy

Feb. 18, 2013 Rise Set
Actual Time 5:56 AM BRT 6:44 PM BRT
Civil Twilight 5:33 AM BRT 7:07 PM BRT
Nautical Twilight 5:05 AM BRT 7:34 PM BRT
Astronomical Twilight 4:37 AM BRT 8:02 PM BRT
Moon 1:19 PM BRT (2/18) No Moon Set
Length of Visible Light 13h 34m
Length of Day
12h 47m
First Quarter, 57% of the Moon is Illuminated
Feb 18
First Quarter
Feb 25
Full
Mar 4
Last Quarter
Mar 11
New
Mar 19
First Quarter

Hourly Weather History & Observations

Time (BRT) Temp. Heat Index Dew Point Humidity Pressure Visibility Wind Dir Wind Speed Gust Speed Precip Events Conditions
12:00 AM 73.4 °F - 60.8 °F 65% 30.04 in - ESE 2.3 mph - N/A   Clear
1:00 AM 73.4 °F - 60.8 °F 65% 30.04 in - SE 2.3 mph - N/A   Clear
2:00 AM 73.4 °F - 60.8 °F 65% 30.04 in - NNE 3.5 mph - N/A   Clear
3:00 AM 73 °F - 62 °F 60%  in 12 mi NE 2.3 mph - -   Partly Cloudy
3:00 AM 73.4 °F - 62.6 °F 69% 30.01 in - NE 2.3 mph - N/A   Clear
4:00 AM 73.4 °F - 62.6 °F 69% 30.01 in - NE 4.6 mph - N/A   Clear
5:00 AM 71.6 °F - 62.6 °F 73% 30.04 in - NE 3.5 mph - N/A   Clear
6:00 AM 71.6 °F - 62.6 °F 73% 30.04 in - NNE 2.3 mph - N/A   Clear
7:00 AM 73.4 °F - 62.6 °F 69% 30.06 in - NNW 2.3 mph - N/A   Clear
8:00 AM 77.0 °F - 62.6 °F 61% 30.06 in - NNE 2.3 mph - N/A   Clear
9:00 AM 80.6 °F 81.8 °F 62.6 °F 54% 30.06 in - NW 6.9 mph - N/A   Clear
10:00 AM 84.2 °F 84.4 °F 60.8 °F 45% 30.06 in - NW 8.1 mph - N/A   Clear
11:00 AM 86.0 °F 86.1 °F 60.8 °F 43% 30.06 in - WNW 9.2 mph - N/A   Clear
12:00 PM 87.8 °F 87.1 °F 59.0 °F 38% 30.06 in - WNW 6.9 mph - N/A   Clear
1:00 PM 89.6 °F 88.9 °F 59.0 °F 36% 30.04 in 6.2 mi NW 9.2 mph - N/A   Partly Cloudy
2:00 PM 80.6 °F 81.5 °F 60.8 °F 51% 30.01 in - NW 9.2 mph - N/A   Clear
3:00 PM 93 °F - 54 °F 18%  in 12 mi West 8.1 mph - -  
3:00 PM 82.4 °F 82.0 °F 57.2 °F 42% 30.01 in - NW 8.1 mph - N/A   Clear
4:00 PM 86.0 °F 84.9 °F 57.2 °F 37% 29.95 in 5.0 mi SSW 13.8 mph - N/A Thunderstorm Thunderstorm
4:15 PM 71.6 °F - 62.6 °F 73% 30.01 in 2.5 mi NNE 16.1 mph - N/A Rain , Thunderstorm Light Thunderstorms and Rain
4:30 PM 68.0 °F - 62.6 °F 83% - 1.2 mi NNE 24.2 mph 40.3 mph N/A Rain , Thunderstorm Heavy Thunderstorms and Rain
5:00 PM 71.6 °F - 64.4 °F 78% - 2.5 mi SW 15.0 mph 28.8 mph N/A Rain , Thunderstorm Heavy Thunderstorms and Rain
6:00 PM 73.4 °F - 64.4 °F 73% 30.01 in 6.2 mi NNW 4.6 mph - N/A   Overcast
7:00 PM 73.4 °F - 62.6 °F 69% 30.04 in - South 2.3 mph - N/A   Clear
8:00 PM 73.4 °F - 62.6 °F 69% 30.04 in - SSE 8.1 mph - N/A   Clear
9:00 PM 72 °F - 65 °F 73%  in 6 mi SSW 11.5 mph - -   Overcast
9:00 PM 71.6 °F - 64.4 °F 78% 30.09 in 6.2 mi SSW 11.5 mph - N/A   Light Drizzle
10:00 PM 71.6 °F - 64.4 °F 78% 30.09 in - SW 9.2 mph - N/A   Clear
11:00 PM 73.4 °F - 62.6 °F 69% 30.06 in - WSW 4.6 mph - N/A   Clear